NNSS 19 (TRANSIT 19)

Last updated on Fri Jun 19 2026 17:10:04 GMT+0000 (Coordinated Universal Time)

1 04507U 70067A 26170.21848855 .00000094 00000+0 11632-3 0 9991 2 04507 90.0167 234.7313 0174077 106.6913 255.3426 13.51365148747671
UTC large
Height (km)
Speed (km/s)
/
Latitude / Longitude
Inclination (degrees)
Orbital Period (minutes)
Azimuth
Elevation
Range (km)
Doppler Factor

Next 0 passes for location: London (51.5072 / 0.1276)

Sorry there are no passes over London.
NNSS 19 (TRANSIT 19)